• In Deutschland
  • Länderverzeichnis
  • Für 7 Tage
  • Wassertemperatur
  • Satellitenkarten
  • Wetterkarte
  • Widgets
  • user-avatar
    Anmelden

    Stündliche Wetter Überlingen

    Heute, 18 Oktober, Mittwoch

    Zeit Temperatur Niederschläge Wind Luftdruck Luftfeuchtigkeit
    00:00 +13°C° 0 mm 1 m/S 724 mmHg 69%
    01:00 +13°C° 0 mm 1 m/S 724 mmHg 65%
    02:00 +12°C° 0 mm 1 m/S 724 mmHg 65%
    03:00 +12°C° 0 mm 1 m/S 723 mmHg 65%
    04:00 +11°C° 0 mm 1 m/S 723 mmHg 65%
    05:00 +11°C° 0 mm 1 m/S 723 mmHg 65%
    06:00 +11°C° 0 mm 1 m/S 723 mmHg 65%
    07:00 +9°C° 0 mm 1 m/S 723 mmHg 63%
    08:00 +12°C° 0 mm 1 m/S 723 mmHg 60%
    09:00 +14°C° 0 mm 1 m/S 723 mmHg 56%
    10:00 +16°C° 0 mm 1 m/S 723 mmHg 53%
    11:00 +19°C° 0 mm 1 m/S 723 mmHg 51%
    12:00 +20°C° 0 mm 1 m/S 722 mmHg 49%
    13:00 +21°C° 0 mm 1 m/S 722 mmHg 48%
    14:00 +21°C° 0 mm 1 m/S 722 mmHg 53%
    15:00 +18°C° 0 mm 0 m/S 722 mmHg 57%
    16:00 +18°C° 0 mm 0 m/S 721 mmHg 62%
    17:00 +16°C° 0 mm 0 m/S 721 mmHg 67%
    18:00 +13°C° 0 mm 0 m/S 721 mmHg 72%
    19:00 +12°C° 0 mm 1 m/S 722 mmHg 77%
    20:00 +12°C° 0 mm 1 m/S 722 mmHg 78%
    21:00 +11°C° 0 mm 1 m/S 722 mmHg 78%
    22:00 +11°C° 0 mm 1 m/S 722 mmHg 79%
    23:00 +11°C° 0 mm 1 m/S 722 mmHg 79%

    Morgen, 19 Oktober, Donnerstag

    Zeit Temperatur Niederschläge Wind Luftdruck Luftfeuchtigkeit
    00:00 +10°C° 0 mm 1 m/S 722 mmHg 78%
    01:00 +10°C° 0 mm 1 m/S 722 mmHg 78%
    02:00 +10°C° 0 mm 1 m/S 721 mmHg 77%
    03:00 +10°C° 0 mm 1 m/S 721 mmHg 77%
    04:00 +10°C° 0 mm 1 m/S 721 mmHg 76%
    05:00 +10°C° 0 mm 1 m/S 721 mmHg 75%
    06:00 +10°C° 0 mm 1 m/S 721 mmHg 74%
    07:00 +10°C° 0 mm 1 m/S 721 mmHg 73%
    08:00 +12°C° 0 mm 1 m/S 721 mmHg 67%
    09:00 +14°C° 0 mm 1 m/S 721 mmHg 62%
    10:00 +18°C° 0 mm 1 m/S 721 mmHg 57%
    11:00 +19°C° 0 mm 1 m/S 721 mmHg 54%
    12:00 +20°C° 0 mm 1 m/S 721 mmHg 50%
    13:00 +22°C° 0 mm 1 m/S 721 mmHg 47%
    14:00 +21°C° 0 mm 1 m/S 721 mmHg 53%
    15:00 +21°C° 0 mm 1 m/S 721 mmHg 58%
    16:00 +20°C° 0 mm 1 m/S 720 mmHg 64%
    17:00 +18°C° 0 mm 1 m/S 720 mmHg 69%
    18:00 +15°C° 0 mm 1 m/S 721 mmHg 75%
    19:00 +13°C° 0 mm 1 m/S 721 mmHg 80%
    20:00 +13°C° 0 mm 1 m/S 721 mmHg 81%
    21:00 +12°C° 0 mm 1 m/S 721 mmHg 82%
    22:00 +12°C° 0 mm 1 m/S 721 mmHg 83%
    23:00 +11°C° 0 mm 1 m/S 721 mmHg 83%

    übermorgen, 20 Oktober, Freitag

    Zeit Temperatur Niederschläge Wind Luftdruck Luftfeuchtigkeit
    00:00 +11°C° 0 mm 1 m/S 721 mmHg 83%
    01:00 +11°C° 0 mm 1 m/S 721 mmHg 83%
    02:00 +11°C° 0 mm 1 m/S 721 mmHg 83%
    03:00 +11°C° 0 mm 1 m/S 721 mmHg 83%
    04:00 +10°C° 0 mm 1 m/S 722 mmHg 83%
    05:00 +10°C° 0 mm 1 m/S 722 mmHg 83%
    06:00 +10°C° 0 mm 1 m/S 722 mmHg 83%
    07:00 +10°C° 0 mm 1 m/S 722 mmHg 83%
    08:00 +12°C° 0 mm 1 m/S 722 mmHg 77%
    09:00 +14°C° 0 mm 1 m/S 722 mmHg 70%
    10:00 +18°C° 0 mm 1 m/S 723 mmHg 64%
    11:00 +19°C° 0 mm 1 m/S 723 mmHg 61%
    12:00 +19°C° 0 mm 2 m/S 723 mmHg 58%
    13:00 +20°C° 0 mm 2 m/S 723 mmHg 55%
    14:00 +19°C° 0,1 mm 2 m/S 723 mmHg 62%
    15:00 +18°C° 0,1 mm 2 m/S 723 mmHg 68%
    16:00 +17°C° 0,1 mm 2 m/S 723 mmHg 74%
    17:00 +16°C° 0 mm 1 m/S 723 mmHg 78%
    18:00 +15°C° 0 mm 1 m/S 724 mmHg 82%
    19:00 +13°C° 0 mm 1 m/S 724 mmHg 87%
    20:00 +13°C° 0 mm 1 m/S 724 mmHg 87%
    21:00 +13°C° 0 mm 1 m/S 724 mmHg 87%
    22:00 +13°C° 0 mm 1 m/S 724 mmHg 87%
    23:00 +12°C° 0 mm 1 m/S 724 mmHg 87%

    21 Oktober, Samstag

    Zeit Temperatur Niederschläge Wind Luftdruck Luftfeuchtigkeit
    00:00 +12°C° 0 mm 1 m/S 724 mmHg 87%
    01:00 +11°C° 0 mm 1 m/S 724 mmHg 88%
    02:00 +12°C° 0 mm 1 m/S 724 mmHg 86%
    03:00 +12°C° 0 mm 1 m/S 724 mmHg 84%
    04:00 +12°C° 0 mm 1 m/S 724 mmHg 83%
    05:00 +12°C° 0 mm 1 m/S 724 mmHg 81%
    06:00 +12°C° 0 mm 2 m/S 724 mmHg 79%
    07:00 +13°C° 0 mm 2 m/S 724 mmHg 78%
    08:00 +14°C° 0 mm 2 m/S 724 mmHg 74%
    09:00 +15°C° 0 mm 2 m/S 724 mmHg 70%
    10:00 +17°C° 0 mm 2 m/S 724 mmHg 66%
    11:00 +18°C° 0 mm 2 m/S 724 mmHg 62%
    12:00 +20°C° 0 mm 2 m/S 723 mmHg 57%
    13:00 +21°C° 0 mm 2 m/S 723 mmHg 53%
    14:00 +20°C° 0 mm 2 m/S 723 mmHg 58%
    15:00 +19°C° 0 mm 2 m/S 723 mmHg 64%
    16:00 +19°C° 0 mm 2 m/S 723 mmHg 70%
    17:00 +17°C° 0,3 mm 2 m/S 723 mmHg 77%
    18:00 +15°C° 0,3 mm 2 m/S 724 mmHg 83%
    19:00 +12°C° 0,3 mm 3 m/S 724 mmHg 90%
    20:00 +12°C° 1,1 mm 3 m/S 724 mmHg 91%
    21:00 +11°C° 1,1 mm 3 m/S 724 mmHg 92%
    22:00 +10°C° 1,1 mm 4 m/S 725 mmHg 93%
    23:00 +10°C° 0,8 mm 3 m/S 725 mmHg 94%

    22 Oktober, Sonntag

    Zeit Temperatur Niederschläge Wind Luftdruck Luftfeuchtigkeit
    00:00 +10°C° 0,8 mm 3 m/S 725 mmHg 94%
    01:00 +9°C° 0,8 mm 3 m/S 725 mmHg 94%
    02:00 +9°C° 0,3 mm 3 m/S 724 mmHg 93%
    03:00 +9°C° 0,3 mm 3 m/S 724 mmHg 93%
    04:00 +9°C° 0,3 mm 3 m/S 724 mmHg 93%
    05:00 +8°C° 0,5 mm 3 m/S 724 mmHg 93%
    06:00 +8°C° 0,5 mm 3 m/S 724 mmHg 93%
    07:00 +8°C° 0,5 mm 3 m/S 724 mmHg 93%
    08:00 +8°C° 0,5 mm 3 m/S 724 mmHg 90%
    09:00 +8°C° 0,5 mm 3 m/S 724 mmHg 87%
    10:00 +8°C° 0,5 mm 4 m/S 725 mmHg 85%
    11:00 +8°C° 0,5 mm 4 m/S 725 mmHg 83%
    12:00 +8°C° 0,5 mm 4 m/S 725 mmHg 81%
    13:00 +8°C° 0,5 mm 4 m/S 724 mmHg 80%
    14:00 +9°C° 0,4 mm 3 m/S 724 mmHg 80%
    15:00 +9°C° 0,4 mm 3 m/S 724 mmHg 80%
    16:00 +9°C° 0,4 mm 3 m/S 724 mmHg 80%
    17:00 +8°C° 0,1 mm 3 m/S 725 mmHg 83%
    18:00 +7°C° 0,1 mm 3 m/S 725 mmHg 86%
    19:00 +5°C° 0,1 mm 3 m/S 725 mmHg 89%
    20:00 +5°C° 0,3 mm 3 m/S 726 mmHg 90%
    21:00 +5°C° 0,3 mm 3 m/S 726 mmHg 91%
    22:00 +6°C° 0,3 mm 4 m/S 726 mmHg 92%
    23:00 +5°C° 0,3 mm 4 m/S 726 mmHg 92%

    23 Oktober, Montag

    Zeit Temperatur Niederschläge Wind Luftdruck Luftfeuchtigkeit
    00:00 +5°C° 0,3 mm 4 m/S 726 mmHg 92%
    01:00 +5°C° 0,3 mm 4 m/S 726 mmHg 93%
    02:00 +5°C° 0,2 mm 4 m/S 726 mmHg 93%
    03:00 +5°C° 0,2 mm 4 m/S 726 mmHg 93%
    04:00 +5°C° 0,2 mm 4 m/S 726 mmHg 93%
    05:00 +5°C° 0,4 mm 4 m/S 727 mmHg 93%
    06:00 +5°C° 0,4 mm 4 m/S 727 mmHg 93%
    07:00 +5°C° 0,4 mm 4 m/S 727 mmHg 93%
    08:00 +6°C° 0,2 mm 4 m/S 728 mmHg 91%
    09:00 +6°C° 0,2 mm 4 m/S 728 mmHg 90%
    10:00 +7°C° 0,2 mm 4 m/S 728 mmHg 88%
    11:00 +8°C° 0,1 mm 4 m/S 728 mmHg 86%
    12:00 +8°C° 0,1 mm 4 m/S 728 mmHg 84%
    13:00 +10°C° 0,1 mm 4 m/S 728 mmHg 82%
    14:00 +10°C° 0,1 mm 3 m/S 728 mmHg 82%
    15:00 +10°C° 0,1 mm 3 m/S 728 mmHg 83%
    16:00 +10°C° 0,1 mm 2 m/S 728 mmHg 83%
    17:00 +9°C° 0 mm 2 m/S 729 mmHg 85%
    18:00 +8°C° 0 mm 2 m/S 729 mmHg 87%
    19:00 +9°C° 0 mm 1 m/S 729 mmHg 89%
    20:00 +8°C° 0 mm 1 m/S 729 mmHg 89%
    21:00 +8°C° 0 mm 1 m/S 729 mmHg 90%
    22:00 +7°C° 0 mm 1 m/S 730 mmHg 91%
    23:00 +7°C° 0 mm 1 m/S 730 mmHg 90%
    Mehr zeigen